Oshawa Municipal Airport

Airport
ICAO code: 
CYOO
IATA Code: 
YOO
Summary
ICAO Region: 
NAM
Territory: 
Location: 
Oshawa, Ontario,
Serving: 
Oshawa
Elevation: 
459 ft
Coordinates: 
Aerial View: 
43° 55' 19.897" N, 78° 53' 42.812" W
Metar
Observation
CYOO 161000Z AUTO 07008KT 9SM -SN BKN016 M13/M16 A3029 RMK SLP271
Station
OSHAWA
Date/Time
2022-01-16 10:00:00
Wind direction
70°
Wind speed
08 kts
Lowest cloud amount
broken clouds
Temperature
-13°C
Dew point
-16°C
Humidity
78%
Weather condition
light snow

Description

Oshawa Municipal Airport is a municipal airport adjacent to the north end of the city of Oshawa, Ontario, Canada. Oshawa Airport is one of the major general aviation airports in the Greater Toronto Area.

Climatology

Runways

Designator Length Width Surface Rops
5/23 809 30 ASP No/No
12/30 1219 30 ASP No/No
Airport map: 
Aerial View: 

Accidents and Serious Incidents at or in the vicinity of CYOO

SKYbrary Partners:

Safety knowledge contributed by: